[[{"header":{"parameterUnit":"m.s-1","parameterCategory":1,"la1":30.2991,"la2":30.254,"lo1":-89.0895,"lo2":-89.0444,"dy":0.0017,"dx":0.0017,"nx":28,"ny":28,"refTime":"2023-08-23T03:00:00:Z","depth":0,"parameterNumber":2,"parameterNumberName":"U-component_of_WINDS"},"data":[0,0,0,0,0,0,0,0,0,0,0,0,0,0,0,0,0,0,0,0,0,0,0,0,0,0,0,0,0,0,0,0,0,0,0,0,0,0,0,0,0,0,0,0,0,0,0,0,0,0,0,0,0,0,0,0,0,0,2.4317,2.4318,0,2.4446,2.4447,2.4449,2.4458,2.4457,2.4455,2.4454,2.4585,2.459,2.4595,0,0,0,0,0,0,0,0,0,0,0,0,0,2.4078,2.4082,2.4317,2.4318,2.432,2.4446,2.4447,2.4449,2.4458,2.4457,2.4455,2.4453,2.4584,2.4589,2.4595,0,0,0,0,0,0,0,0,0,0,0,0,0,2.4191,2.4083,2.4316,2.434,2.4343,2.4445,2.4447,2.445,2.4459,2.4457,2.4454,2.4452,2.4582,2.4589,2.4596,2.4683,0,0,2.4618,2.4621,0,0,0,0,0,0,0,0,2.4185,2.42,2.4335,2.4338,2.4342,2.4434,2.4411,2.4528,2.4459,2.4415,2.4454,2.4451,2.4537,2.4547,2.4576,2.469,2.4695,2.4619,2.4623,2.4626,2.4628,0,0,0,0,0,0,0,2.4177,2.4195,2.4368,2.4337,2.4341,2.4343,2.4357,2.4433,2.4486,2.4418,2.4419,2.4435,2.4538,2.4569,2.4579,2.4697,2.4619,2.4625,2.4629,2.4632,2.4888,2.4891,0,0,0,0,0,0,2.4165,2.4188,2.4364,2.4372,2.4257,2.4349,2.4365,2.4406,2.4485,2.4495,2.4436,2.4435,2.4558,2.4571,2.4584,2.4691,2.4626,2.4633,2.4637,2.4886,2.4889,2.4892,0,0,0,0,0,0,2.416,2.418,2.4358,2.428,2.4303,2.4356,2.4402,2.441,2.4441,2.4499,2.4508,2.4458,2.4557,2.4574,2.4659,2.4696,2.4636,2.4643,2.4883,2.4887,2.489,2.4906,0,0,0,0,0,0,2.4153,2.4178,2.4212,2.4281,2.4307,2.4431,2.4405,2.4414,2.4454,2.4453,2.4522,2.4531,2.4556,2.4648,2.4666,2.4705,2.4648,2.488,2.4885,2.4889,2.4902,2.491,2.4916,0,0,0,0,0,2.4144,2.4211,2.4214,2.4235,2.4351,2.4433,2.4448,2.4476,2.4457,2.4491,2.4528,2.4529,2.4689,2.4656,2.4677,2.4718,2.4878,2.4883,2.4889,2.4899,2.4908,2.4916,0,0,0,0,0,0,2.4145,2.4221,2.4224,2.4316,2.4368,2.4435,2.4479,2.4484,2.4543,2.4539,2.4571,2.4587,2.467,2.4703,2.4665,2.4807,2.4781,2.4791,2.4782,2.4791,2.4798,2.4788,2.4654,0,0,0,0,0,2.4156,2.4217,2.428,2.4355,2.4381,2.4425,2.4462,2.4479,2.4534,2.4556,2.4599,2.4653,2.4715,2.4755,2.4816,2.4908,2.4922,2.4946,2.4953,2.4958,2.4966,2.5017,2.5028,2.491,2.491,2.491,0,0,2.418,2.4228,2.4265,2.4356,2.4399,2.4461,2.4444,2.451,2.4556,2.4566,2.4649,2.4682,2.4744,2.4833,2.4874,2.4862,2.5002,2.4966,2.4969,2.4974,2.5024,2.5035,2.5044,2.4914,2.4913,2.4912,0,0,2.4253,2.4297,2.4363,2.4406,2.4471,2.45,2.4516,2.4582,2.4605,2.4688,2.4697,2.4753,2.4859,2.4903,2.4939,2.5029,2.5032,2.5048,2.5084,2.5132,2.5142,2.515,2.5181,2.5192,2.5056,2.5056,2.5056,0,2.4274,2.4368,2.4397,2.4463,2.4503,2.4515,2.4583,2.4623,2.4704,2.4731,2.4717,2.4852,2.4894,2.4993,2.5015,2.5044,2.5063,2.504,2.5138,2.5147,2.5155,2.5185,2.5197,2.5058,2.5058,2.5057,2.5057,0,2.4389,2.4454,2.45,2.4578,2.4623,2.469,2.4729,2.4771,2.4785,2.4815,2.49,2.4951,2.5022,2.5047,2.5061,2.5148,2.5139,2.5132,2.5106,2.5167,2.5196,2.5208,2.506,2.5059,2.5059,2.5058,0,0,2.4466,2.456,2.4576,2.4611,2.4684,2.4734,2.4802,2.4871,2.4907,2.4962,2.5019,2.5109,2.5103,2.5144,2.5163,2.5206,2.5273,2.5193,2.5195,2.5205,2.5372,2.5376,2.5389,2.5276,2.5279,2.5281,2.5366,0,2.4547,2.4666,2.4695,2.4797,2.4858,2.4871,2.4929,2.498,2.5011,2.5066,2.51,2.5163,2.5151,2.5175,2.5219,2.5256,2.5307,2.525,2.5329,2.5331,2.5311,2.5404,2.5409,2.5486,2.5378,2.538,2.5381,0,2.4657,2.4715,2.4823,2.4888,2.4914,2.4966,2.5032,2.5085,2.5143,2.5162,2.5208,2.5223,2.5293,2.5265,2.5362,2.5323,2.5357,2.538,2.5384,2.5391,2.5358,2.5412,2.5512,2.5523,2.5399,2.5398,2.5397,0,2.47,2.4806,2.4884,2.4914,2.4992,2.5028,2.5062,2.5118,2.5158,2.5216,2.5242,2.5307,2.5343,2.5393,2.5425,2.5402,2.5519,2.5494,2.5536,2.5535,2.5559,2.5557,2.5664,2.5583,2.5583,2.5583,2.5582,0,2.4786,2.4852,2.4905,2.4953,2.5027,2.5059,2.5131,2.5165,2.5215,2.527,2.5286,2.5337,2.5376,2.5433,2.5458,2.5534,2.555,2.5567,2.5573,2.5565,2.5563,2.5587,2.5582,2.5586,2.5585,2.5585,2.5584,0,2.4847,2.4885,2.4971,2.5038,2.5056,2.5107,2.5164,2.5211,2.5243,2.5312,2.533,2.5379,2.5447,2.5484,2.5568,2.5585,2.567,2.5673,2.565,2.5652,2.5692,2.5687,2.5817,2.5836,2.5744,2.5744,2.5745,0,2.4899,2.495,2.5022,2.5059,2.5094,2.5155,2.5196,2.523,2.5272,2.5342,2.538,2.5449,2.5505,2.5612,2.5655,2.572,2.5724,2.5766,2.5734,2.5724,2.5724,2.572,2.5724,2.577,2.5771,2.5772,2.5773,0,2.4986,2.5003,2.5061,2.5127,2.5175,2.5228,2.5281,2.5311,2.5354,2.54,2.5469,2.5513,2.5599,2.5667,2.5735,2.577,2.5778,2.5783,2.5795,2.5787,2.5771,2.5779,2.5663,2.5779,2.5778,2.5778,2.5777,2.5777,2.5043,2.5089,2.5147,2.5211,2.5255,2.5303,2.5351,2.5388,2.5446,2.5519,2.5536,2.5609,2.5666,2.5758,2.5795,2.5852,2.5844,2.5863,2.5868,2.5872,2.5872,2.5763,2.5865,2.5865,2.5865,2.5865,2.5864,0,2.5131,2.5169,2.5228,2.5301,2.5352,2.5356,2.5415,2.5456,2.552,2.5573,2.5628,2.5707,2.5773,2.5821,2.5888,2.5925,2.593,2.5941,2.5938,2.5946,2.5876,2.5858,2.5935,2.5935,2.5935,2.5935,2.5935,2.5935,2.5182,2.5259,2.5282,2.5381,2.5418,2.5489,2.5522,2.5567,2.5609,2.5697,2.5751,2.5783,2.5834,2.5905,2.5965,2.5978,2.6001,2.6011,2.6024,2.5958,2.5951,2.5943,2.5926,2.6016,2.6017,2.6089,2.6089,2.609]},{"header":{"parameterUnit":"m.s-1","parameterCategory":1,"la1":30.2991,"la2":30.254,"lo1":-89.0895,"lo2":-89.0444,"dy":0.0017,"dx":0.0017,"nx":28,"ny":28,"refTime":"2023-08-23T03:00:00:Z","depth":0,"parameterNumber":3,"parameterNumberName":"V-component_of_WINDS"},"data":[0,0,0,0,0,0,0,0,0,0,0,0,0,0,0,0,0,0,0,0,0,0,0,0,0,0,0,0,0,0,0,0,0,0,0,0,0,0,0,0,0,0,0,0,0,0,0,0,0,0,0,0,0,0,0,0,0,0,-0.5363,-0.5363,0,-0.5392,-0.5393,-0.5393,-0.5427,-0.5427,-0.5428,-0.5428,-0.5459,-0.5459,-0.5459,0,0,0,0,0,0,0,0,0,0,0,0,0,-0.5336,-0.5336,-0.5362,-0.5363,-0.5363,-0.5392,-0.5393,-0.5393,-0.5427,-0.5427,-0.5428,-0.5428,-0.5459,-0.5459,-0.5459,0,0,0,0,0,0,0,0,0,0,0,0,0,-0.5355,-0.5337,-0.5362,-0.5383,-0.5386,-0.5392,-0.5393,-0.5393,-0.5426,-0.5427,-0.5428,-0.5429,-0.5458,-0.5459,-0.5459,-0.5448,0,0,-0.5461,-0.5461,0,0,0,0,0,0,0,0,-0.5354,-0.5356,-0.538,-0.5382,-0.5385,-0.5407,-0.5395,-0.5411,-0.5426,-0.5411,-0.5428,-0.5429,-0.5441,-0.5443,-0.5447,-0.5449,-0.545,-0.5461,-0.5461,-0.5462,-0.5462,0,0,0,0,0,0,0,-0.5352,-0.5355,-0.5374,-0.538,-0.5383,-0.5392,-0.5395,-0.5398,-0.5421,-0.5412,-0.5415,-0.5418,-0.5442,-0.5446,-0.5448,-0.5451,-0.5461,-0.5462,-0.5462,-0.5462,-0.5446,-0.5446,0,0,0,0,0,0,-0.5348,-0.5353,-0.5373,-0.5375,-0.5371,-0.5392,-0.5396,-0.5399,-0.5421,-0.5426,-0.5417,-0.5419,-0.5445,-0.5447,-0.5449,-0.5437,-0.5462,-0.5462,-0.5462,-0.5447,-0.5446,-0.5445,0,0,0,0,0,0,-0.5347,-0.5349,-0.5372,-0.5365,-0.5369,-0.5391,-0.5395,-0.5399,-0.5403,-0.5425,-0.5429,-0.5417,-0.5446,-0.5448,-0.5448,-0.5438,-0.5462,-0.5463,-0.5448,-0.5447,-0.5446,-0.5412,0,0,0,0,0,0,-0.5346,-0.5349,-0.5344,-0.5365,-0.5369,-0.537,-0.5394,-0.5399,-0.5404,-0.5407,-0.5426,-0.543,-0.5446,-0.5447,-0.5448,-0.5439,-0.5463,-0.5449,-0.5447,-0.5446,-0.5414,-0.541,-0.5407,0,0,0,0,0,-0.5345,-0.5333,-0.5344,-0.5346,-0.5363,-0.5369,-0.5372,-0.5391,-0.5403,-0.5398,-0.5413,-0.5429,-0.5439,-0.5447,-0.5449,-0.544,-0.5449,-0.5448,-0.5446,-0.5416,-0.5411,-0.5407,0,0,0,0,0,0,-0.5311,-0.5336,-0.5348,-0.5342,-0.5354,-0.5375,-0.537,-0.5385,-0.5393,-0.5395,-0.5419,-0.5423,-0.542,-0.543,-0.5438,-0.543,-0.5447,-0.5446,-0.5423,-0.5419,-0.5415,-0.5412,-0.5464,0,0,0,0,0,-0.5302,-0.5305,-0.5328,-0.532,-0.5325,-0.5347,-0.535,-0.5364,-0.5377,-0.5381,-0.5396,-0.5408,-0.5414,-0.5417,-0.5424,-0.5417,-0.5421,-0.5412,-0.5408,-0.5404,-0.5403,-0.54,-0.5396,-0.544,-0.544,-0.544,0,0,-0.5285,-0.53,-0.53,-0.5314,-0.5324,-0.5327,-0.535,-0.5352,-0.5354,-0.5382,-0.5382,-0.5394,-0.5408,-0.5405,-0.5404,-0.5413,-0.5392,-0.5402,-0.54,-0.54,-0.5398,-0.5394,-0.539,-0.5439,-0.5439,-0.5439,0,0,-0.5255,-0.5266,-0.5262,-0.5272,-0.5287,-0.5302,-0.5301,-0.5321,-0.5329,-0.533,-0.5352,-0.5355,-0.5365,-0.5374,-0.5381,-0.5356,-0.5372,-0.5358,-0.5337,-0.5335,-0.5332,-0.5329,-0.532,-0.5317,-0.5357,-0.5356,-0.5356,0,-0.5232,-0.5236,-0.5258,-0.5258,-0.5264,-0.529,-0.5286,-0.5295,-0.5311,-0.5315,-0.5325,-0.5339,-0.535,-0.535,-0.5344,-0.5348,-0.5348,-0.5355,-0.533,-0.5328,-0.5325,-0.5317,-0.5314,-0.5355,-0.5355,-0.5355,-0.5355,0,-0.5207,-0.521,-0.5204,-0.522,-0.5226,-0.5224,-0.5245,-0.5249,-0.5263,-0.5276,-0.5278,-0.5293,-0.5304,-0.5305,-0.5319,-0.5307,-0.5312,-0.5326,-0.5343,-0.5319,-0.5312,-0.5309,-0.5352,-0.5353,-0.5353,-0.5354,0,0,-0.5154,-0.5183,-0.5181,-0.5188,-0.5208,-0.5211,-0.5211,-0.5222,-0.5224,-0.5235,-0.5236,-0.5244,-0.5258,-0.5265,-0.528,-0.5278,-0.5258,-0.5293,-0.5293,-0.5285,-0.5246,-0.5235,-0.5231,-0.5269,-0.5269,-0.5268,-0.5245,0,-0.5127,-0.5128,-0.5148,-0.5143,-0.5147,-0.5172,-0.5172,-0.5185,-0.5198,-0.5203,-0.5219,-0.5224,-0.5241,-0.5246,-0.5245,-0.5261,-0.5251,-0.5263,-0.527,-0.527,-0.5265,-0.5228,-0.5215,-0.5193,-0.5243,-0.5242,-0.5242,0,-0.5095,-0.5105,-0.51,-0.5121,-0.5123,-0.5123,-0.5135,-0.5139,-0.5155,-0.5165,-0.5173,-0.5191,-0.5193,-0.5211,-0.5214,-0.5222,-0.5227,-0.5235,-0.5235,-0.5235,-0.5254,-0.5227,-0.5186,-0.5182,-0.5238,-0.5238,-0.5238,0,-0.5057,-0.5069,-0.5068,-0.5074,-0.5098,-0.5098,-0.5108,-0.5124,-0.5129,-0.514,-0.5144,-0.5155,-0.5161,-0.5169,-0.519,-0.52,-0.5191,-0.521,-0.52,-0.5199,-0.5196,-0.5195,-0.5154,-0.52,-0.52,-0.52,-0.52,0,-0.5024,-0.502,-0.5051,-0.505,-0.5047,-0.5071,-0.5068,-0.5081,-0.5095,-0.5098,-0.5121,-0.5124,-0.5151,-0.5157,-0.5173,-0.5174,-0.5176,-0.5185,-0.5189,-0.5182,-0.5181,-0.5185,-0.5186,-0.5199,-0.5199,-0.5199,-0.52,0,-0.498,-0.5,-0.5001,-0.5025,-0.5031,-0.5027,-0.5048,-0.5048,-0.5064,-0.5067,-0.507,-0.5094,-0.5102,-0.5124,-0.5137,-0.5149,-0.5145,-0.5153,-0.5139,-0.5142,-0.513,-0.5131,-0.5089,-0.5085,-0.5134,-0.5133,-0.5133,0,-0.4957,-0.4955,-0.4978,-0.4982,-0.4991,-0.4996,-0.5002,-0.5027,-0.5032,-0.505,-0.5049,-0.5059,-0.5068,-0.5079,-0.5099,-0.511,-0.5118,-0.5103,-0.512,-0.5113,-0.5117,-0.5117,-0.5117,-0.5099,-0.5098,-0.5098,-0.5097,0,-0.4914,-0.4925,-0.4932,-0.4943,-0.495,-0.496,-0.4971,-0.4973,-0.5001,-0.5006,-0.5014,-0.5021,-0.5036,-0.5045,-0.506,-0.5071,-0.5089,-0.5092,-0.509,-0.5082,-0.5074,-0.5078,-0.5128,-0.5092,-0.5093,-0.5093,-0.5093,-0.5094,-0.488,-0.4879,-0.4896,-0.4904,-0.4915,-0.4925,-0.4927,-0.4944,-0.4951,-0.4964,-0.4979,-0.4986,-0.5003,-0.5024,-0.5034,-0.5041,-0.505,-0.5047,-0.5046,-0.5045,-0.5042,-0.5074,-0.5043,-0.5044,-0.5044,-0.5044,-0.5044,0,-0.4838,-0.485,-0.4857,-0.4873,-0.4879,-0.4896,-0.491,-0.4914,-0.492,-0.4934,-0.4943,-0.4953,-0.4963,-0.4984,-0.4996,-0.4997,-0.5006,-0.5,-0.4999,-0.5002,-0.5033,-0.5033,-0.4993,-0.4993,-0.4993,-0.4993,-0.4993,-0.4993,-0.4817,-0.4817,-0.483,-0.4836,-0.4849,-0.4855,-0.4862,-0.4872,-0.4884,-0.4894,-0.4903,-0.4916,-0.4933,-0.4947,-0.4958,-0.4964,-0.4967,-0.4958,-0.4966,-0.4995,-0.5,-0.5004,-0.5004,-0.4958,-0.4958,-0.4935,-0.4934,-0.4934]}]]